Content
SEND FEEDBACK

Daily
Averages
Monthly
Summary
Argentina

FUNES, ARGENTINA


Home > South America > Argentina
Elevation: 82 feet     Latitude: 32 55S     Longitude: 060 46W

WEATHER
 
SELECT A DAY
Number of Records: 144,791;   Date Range: 6/30/96 - 11/20/14
 
SHARE

PRINT THIS DATA

[ ← Previous Day ]
WEATHER ALMANAC - JANUARY 31, 2013
[ Next Day → ]
[ °C ]   °F
Weather ElementAverageHighLow
Temperature76 °F83 °F (6:00 pm)69.8 °F (8:00 am)
Dewpoint68.2 °F71.6 °F (8:00 pm)62.6 °F (4:00 am)
Humidity76.8 %100 % (9:00 am)53 % (6:00 pm)
Barometer29.81 in29.95 in (8:00 am)29.71 in (6:00 pm)
Wind Speed7.1 mph21.9 mph (7:00 am)
Weather ElementAverage
Visibility5.2 mi
Wind DirectionESE (113.5 °)

Weather ElementTotal
Precipitation---
Cooling Degree Days11.4 (Base 65)
Growing Degree Days26.4 (Base 50)
Averaged from 32 records on January 31, 2013
WEATHER CONDITIONS BREAKOUT
WIND DIRECTION BREAKOUT
WEATHER BY HOUR - JANUARY 31, 2013
[ °C ]   °F
Local TimeTemperatureDewpointHumidityBarometerVisibilityWind DirectionWind SpeedGust SpeedPrecipitationEventsConditions
12:00 AM78.8 °F66.2 °F65 %29.83 inSouth (180°)6.9 mphClear
12:28 AM78.8 °F66.2 °F65 %29.83 in6.2 miSouth (180°)6.9 mphMostly Cloudy
1:00 AM77.0 °F66.2 °F69 %29.83 in6.2 miSSE (160°)6.9 mphMostly Cloudy
2:00 AM78.8 °F66.2 °F65 %29.80 inSouth (180°)12.7 mphClear
3:00 AM78.8 °F64.4 °F61 %29.77 inSE (140°)8.1 mphClear
4:00 AM77.0 °F62.6 °F61 %29.74 inSE (140°)8.1 mphClear
5:00 AM75.2 °F64.4 °F69 %29.77 inSouth (180°)9.2 mphClear
6:00 AM73.4 °F64.4 °F73 %29.80 in5.6 miSouth (180°)6.9 mphRain-ThunderstormThunderstorms and Rain
6:00 AM74.0 °F64.0 °F65 %29.80 in6.0 miSouth (180°)6.9 mphRain-ThunderstormThunderstorms and Rain
7:00 AM73.4 °F66.2 °F78 %29.86 in3.7 miSW (230°)21.9 mphRain-ThunderstormThunderstorms and Rain
8:00 AM69.8 °F68.0 °F94 %29.95 in2.5 miSSW (200°)11.5 mphRain-ThunderstormThunderstorms and Rain
8:40 AM69.8 °F68.0 °F94 %29.95 in2.5 miWNW (290°)5.8 mphRain-ThunderstormThunderstorms and Rain
9:00 AM70.0 °F69.0 °F97 %29.95 in2.0 miCalmRain-ThunderstormThunderstorms and Rain
9:00 AM69.8 °F69.8 °F100 %29.95 in2.5 miCalmRain-ThunderstormThunderstorms and Rain
10:00 AM69.8 °F69.8 °F100 %29.89 in5.0 miSSE (160°)8.1 mphRain-ThunderstormLight Thunderstorms and Rain
10:21 AM69.8 °F69.8 °F100 %29.89 in5.0 miNNE (20°)5.8 mphRain-ThunderstormLight Thunderstorms and Rain
10:47 AM69.8 °F69.8 °F100 %29.89 in5.6 miEast (90°)9.2 mphOvercast
12:00 PM73.0 °F69.0 °F83 %29.81 in7.0 miEast (90°)17.3 mphClear
1:00 PM75.2 °F68.0 °F78 %29.80 inNE (50°)12.7 mphClear
2:00 PM78.8 °F68.0 °F69 %29.80 in6.2 miNE (50°)6.9 mphOvercast
3:00 PM78.0 °F69.0 °F67 %29.81 in7.0 miNNE (20°)4.6 mphPartly Cloudy
3:00 PM78.8 °F69.8 °F74 %29.80 in6.2 miNNE (20°)4.6 mphOvercast
4:00 PM82.4 °F69.8 °F66 %29.77 inNNW (340°)4.6 mphClear
5:00 PM82.4 °F69.8 °F66 %29.74 inNE (50°)5.8 mphClear
6:00 PM82.4 °F68.0 °F62 %29.71 in6.2 miNNE (20°)6.9 mphScattered Clouds
6:00 PM83.0 °F69.0 °F53 %29.72 in7.0 miNNE (20°)6.9 mphScattered Clouds
7:00 PM82.4 °F69.8 °F66 %29.71 inNE (50°)5.8 mphClear
8:00 PM78.8 °F71.6 °F78 %29.71 inNE (50°)3.5 mphClear
9:00 PM76.0 °F71.0 °F80 %29.73 in7.0 miENE (70°)3.5 mphScattered Clouds
9:00 PM77.0 °F71.6 °F83 %29.71 inENE (70°)3.5 mphClear
10:00 PM75.2 °F71.6 °F89 %29.74 inESE (110°)4.6 mphClear
11:00 PM75.2 °F71.6 °F89 %29.74 inCalmClear
Hourly data recorded from SAAR, located miles away from Funes, Argentina







STORIES FROM OUR PARTNERS